Home > Time Zones > World Clock > Weather > Greece > Ilio > Past weeks

Flag for Greece Weather past 2 weeks in Ilio, Greece

Now
82 °F

Scattered clouds.


Feels Like: 82 °F
Forecast: 65 / 78 °F
Wind: 7 mph from Northwest

Location: Elefsis Airport

Current Time: Sep 16, 2014 at 1:01:03 PM

Latest Report: Sep 16, 2014 at 11:50 AM


Visibility: N/A

Pressure: 29.86 "Hg

Humidity: 45%

Dew point: 59 °F

Location of IlioLocation

Historic Weather in Ilio — Graph

°F

Ilio temperature yesterday

Maximum temperature yesterday: 86 °F (at 12:50 PM)
Minimum temperature yesterday: 68 °F (at 5:50 AM)
Average temperature yesterday: 76 °F

Past Weeks' High & Low Weather Summary

 TemperatureHumidityPressure
High90 °F (Sep 1, 2:20 PM)100% (Sep 8, 12:50 AM)29.98 "Hg (Sep 8, 12:50 AM)
Low64 °F (Sep 11, 5:50 AM)27% (Sep 1, 2:20 PM)29.62 "Hg (Sep 2, 4:20 PM)
Average78 °F58%29.83 "Hg
* Reported Sep 1 11:20 AM — Sep 16 11:50 AM, Ilio, Weather by CustomWeather, © 2014

Note: Actual official high and low records may vary slightly from our data, if they occured in-between our weather recording intervals... More about our weather records

Advertising

Ilio weather history for previous 24 hours

 ConditionsComfort  
Time TempWeatherWind HumidityBarometerVisibility
11:50 AM
Sep 16
82 °FScattered clouds.7 mph45%29.86 "HgN/A
11:20 AM81 °FScattered clouds.8 mph51%29.86 "HgN/A
10:50 AM81 °FPassing clouds.7 mph51%29.86 "HgN/A
10:20 AM79 °FPassing clouds.6 mph54%29.86 "HgN/A
9:50 AM79 °FPassing clouds.9 mph58%29.86 "HgN/A
9:20 AM77 °FPassing clouds.7 mph61%29.86 "HgN/A
8:50 AM75 °FPassing clouds.6 mph65%29.86 "HgN/A
8:20 AM72 °FPassing clouds.No wind73%29.86 "HgN/A
7:50 AM72 °FPassing clouds.No wind73%29.86 "HgN/A
7:20 AM70 °FPassing clouds.No wind78%29.86 "HgN/A
6:50 AM70 °FPassing clouds.No wind78%29.86 "HgN/A
6:20 AM70 °FPassing clouds.No wind73%29.83 "HgN/A
5:50 AM70 °FPassing clouds.No wind73%29.83 "HgN/A
5:20 AM68 °FPassing clouds.No wind78%29.83 "HgN/A
4:50 AM68 °FPassing clouds.No wind78%29.83 "HgN/A
3:20 AM70 °FPassing clouds.No wind78%29.83 "HgN/A
2:50 AM70 °FPassing clouds.No wind78%29.86 "HgN/A
2:20 AM70 °FPassing clouds.No wind78%29.86 "HgN/A
1:50 AM70 °FPassing clouds.No wind78%29.86 "HgN/A
1:20 AM70 °FPassing clouds.5 mph78%29.86 "HgN/A
12:50 AM70 °FPassing clouds.5 mph78%29.86 "HgN/A
11:50 PM
Sep 15
72 °FPassing clouds.7 mph73%29.86 "HgN/A
11:20 PM72 °FPassing clouds.7 mph73%29.86 "HgN/A
10:50 PM72 °FPassing clouds.7 mph73%29.86 "HgN/A
10:20 PM75 °FPassing clouds.6 mph65%29.86 "HgN/A
9:50 PM75 °FPassing clouds.6 mph65%29.86 "HgN/A
9:20 PM77 °FPassing clouds.6 mph65%29.86 "HgN/A
8:50 PM77 °FPassing clouds.6 mph65%29.86 "HgN/A
8:20 PM79 °FScattered clouds.5 mph61%29.86 "HgN/A
7:50 PM79 °FScattered clouds.5 mph61%29.86 "HgN/A
7:20 PM79 °FScattered clouds.6 mph58%29.86 "HgN/A
6:50 PM81 °FScattered clouds.9 mph51%29.86 "HgN/A
6:20 PM81 °FScattered clouds.8 mph54%29.86 "HgN/A
5:50 PM82 °FScattered clouds.5 mph48%29.86 "HgN/A
4:50 PM82 °FScattered clouds.10 mph48%29.86 "HgN/A
4:20 PM82 °FScattered clouds.12 mph51%29.86 "HgN/A
3:50 PM81 °FScattered clouds.10 mph58%29.89 "HgN/A
3:20 PM81 °FScattered clouds.5 mph62%29.89 "HgN/A
2:50 PM77 °FThunderstorms. Partly sunny.12 mph74%29.89 "HgN/A
1:50 PM82 °FPartly sunny.8 mph48%29.89 "HgN/A
1:20 PM86 °FScattered clouds.10 mph43%29.89 "HgN/A
Weather by CustomWeather, © 2014

See weather overviewHow to use our weather pages